Location: Cheucle
(45.3098°N, 4.1465°E)
Time: 08:39:40
(UTC+00:00)

Daily predictions for brighter satellites

Satellite Brightness Start Highest point End
(mag) Time Altitude Azimuth Time Altitude Azimuth Time Altitude Azimuth
Cosmos 2154 Rocket 4.0 17:57:50 10° N 18:04:00 62° ENE 18:10:09 10° SSE
Cosmos 1140 Rocket 4.1 17:59:40 10° N 18:04:25 36° ENE 18:09:07 10° SE
ATLAS 2AS CENTAUR R/B 3.4 17:56:53 10° NW 18:04:27 65° WSW 18:11:20 10° SSE
Cosmos 2084 Rocket 3.8 18:02:34 10° SSW 18:06:51 49° ESE 18:11:10 10° NE
GP-B 3.2 18:04:16 10° N 18:08:39 56° E 18:13:00 10° SSE
Cosmos 1842 4.5 18:05:40 10° NNW 18:09:29 48° W 18:13:17 10° SSW
DELTA 2 R/B (1) 4.3 18:04:40 10° WSW 18:09:56 43° S 18:15:13 10° E
Cosmos 405 Rocket 3.7 18:07:22 10° SSE 18:10:24 25° E 18:13:29 10° NE
CSL-04 Rocket 3.8 18:05:00 10° SSE 18:10:32 90° NE 18:16:08 10° NNW
Cosmos 1624 Rocket 4.3 18:07:00 10° S 18:11:54 44° ESE 18:16:50 10° NNE
CZ-4 R/B 1.9 18:10:18 10° S 18:14:10 62° WSW 18:18:09 10° NNW
Orbus 7S? 4.5 18:10:35 10° SSW 18:14:30 54° SE 18:23:30 10° NE
Lacrosse 5 3.6 18:14:16 10° SE 18:16:25 13° ESE 18:18:34 10° E
FREGAT/IRIS 4.0 18:18:08 10° ESE 18:20:13 19° ENE 18:22:18 10° NNE
Cosmos 2237 Rocket 2.2 18:15:01 10° NNW 18:20:45 76° ENE 18:26:27 10° SSE
Cosmos 1441 Rocket 3.7 18:17:14 10° SSW 18:20:59 65° WNW 18:24:44 10° N
CSL-04 Debris 4.5 18:16:45 10° S 18:22:08 73° WSW 18:27:34 10° NNW
Lacrosse 5 rocket 1.0 18:18:51 10° SW 18:22:27 74° SE 18:26:12 10° NE
Cosmos 1544 3.5 18:19:13 10° SSW 18:22:47 65° W 18:26:24 10° N
Cosmos 2333 Rocket 3.7 18:20:54 10° NW 18:26:12 40° WSW 18:31:30 10° S
COSMO-SKYMED 1 3.7 18:22:35 10° N 18:26:47 49° WNW 18:30:58 10° SW
Cosmos 1437 Rocket 3.9 18:25:55 10° NNE 18:28:56 22° ENE 18:31:14 14° ESE
Cosmos 1980 3.8 18:25:46 10° NNW 18:31:26 85° WSW 18:37:05 10° SSE
BREEZE M DEB (TANK) 2.6 18:30:49 10° WNW 18:32:50 36° N 18:35:55 12° ENE
Nadezhda 1 Rocket 4.2 18:28:51 10° SSW 18:34:54 75° W 18:41:03 10° N
CZ-2C R/B 4.4 18:31:27 10° NE 18:35:20 29° E 18:39:10 10° SSE
Okean 1-7 Rocket 3.7 18:32:04 10° N 18:36:28 56° ENE 18:40:53 10° SSE
MONITOR-E 4.1 18:34:03 10° SSE 18:36:45 46° ENE 18:39:28 10° N
Cosmos 1939 Rocket 2.7 18:32:56 10° SSE 18:36:46 80° ENE 18:40:40 10° N
PSLV R/B 3.8 18:35:26 10° WSW 18:37:52 31° S 18:39:09 20° SE
Cosmos 1295 Rocket 4.4 18:31:50 10° N 18:38:01 82° E 18:44:07 10° S
Meteor 1-15 Rocket 4.3 18:33:06 10° S 18:38:49 67° E 18:44:41 10° NNE
Meteor 1-24 Rocket 4.5 18:35:12 10° N 18:40:32 35° ENE 18:45:36 12° SE
Cosmos 962 Rocket 4.5 18:36:05 10° N 18:42:27 78° E 18:48:49 10° SSE
ATLAS CENTAUR R/B 3.4 18:39:35 10° SE 18:41:43 15° ESE 18:41:43 15° ESE
Cosmos 1455 Rocket 3.4 18:39:10 10° SSE 18:43:22 44° E 18:47:37 10° NNE
Cosmos 1544 Rocket 4.1 18:39:29 10° SSE 18:43:34 36° E 18:47:39 10° NNE
Cosmos 1371 Rocket 4.1 18:39:21 10° SSW 18:44:41 84° WNW 18:50:05 10° NNE
GEOS 3 Rocket 4.0 18:41:41 16° ESE 18:45:28 45° NE 18:50:21 10° NNW
Cosmos 1805 4.1 18:42:22 10° SSE 18:45:42 28° E 18:49:04 10° NNE
SL-8 R/B 4.0 18:42:55 10° WNW 18:47:40 62° N 18:50:59 19° E
Meteor 1-4 Rocket 2.3 18:44:16 10° N 18:47:47 77° E 18:51:15 10° SSE
Cosmos 2219 Rocket 4.3 18:43:24 10° NW 18:48:01 27° WSW 18:52:39 10° SSW
Cosmos 1023 Rocket 4.4 18:44:43 10° NNW 18:49:54 86° ENE 18:54:59 10° SSE
SPOT 3 Rocket 3.9 18:48:40 13° SE 18:52:55 43° ENE 18:57:47 10° N
Cosmos 1707 3.8 18:49:35 10° NNW 18:53:23 48° W 18:57:08 10° SSW
Cosmos 676 Rocket 3.9 18:49:19 10° NNW 18:54:35 75° ENE 18:59:47 10° SSE
Cosmos 1452 Rocket 3.9 18:50:14 10° S 18:55:03 38° ESE 18:59:54 10° NE
SL-16 R/B 2.3 18:49:40 10° NNW 18:55:17 57° ENE 18:59:29 18° SE
EO 1 Delta rocket 4.2 18:50:15 10° SSE 18:56:29 74° ENE 19:01:31 10° N
ADEOS Rocket 3.9 18:54:23 10° NNE 19:01:27 40° E 19:08:39 10° SSE
Cosmos 1626 Rocket 4.1 18:58:45 10° N 19:02:45 35° ENE 19:04:03 29° ESE
USA 186 2.0 19:01:15 27° SE 19:02:53 54° ENE 19:06:13 10° N
ARGOS 3.6 19:01:55 22° SE 19:04:53 41° ENE 19:09:56 10° N
Meteor 2-17 Rocket 4.4 18:59:51 10° N 19:05:57 89° E 19:12:00 10° S
CZ-2C R/B 4.1 19:05:50 25° E 19:07:33 30° ENE 19:12:22 10° N
Cosmos 2082 3.6 19:03:46 10° SSW 19:09:28 72° ESE 19:15:11 10° NNE
Cosmos 482 Debris 4.1 19:07:18 10° SW 19:12:30 76° SSE 19:13:42 39° ENE
H-2A R/B 2.0 19:18:45 30° SE 19:21:04 57° ENE 19:26:04 10° N
ASTEX 1 3.8 19:17:00 10° N 19:21:51 63° W 19:26:40 10° SSW
Cosmos 2227 Rocket 2.7 19:17:02 10° SW 19:22:38 61° WNW 19:28:17 10° NNE
Ariane Rocket 4.3 19:18:37 10° SSW 19:23:22 40° W 19:28:10 10° NNW
Meteor 2-5 Rocket 3.9 19:17:32 10° NNW 19:23:25 83° W 19:29:22 10° S
Meteor 1-22 Rocket 4.3 19:17:45 10° S 19:23:47 67° E 19:29:50 10° NNE
RESURS DK-1 2.6 19:20:31 10° NNW 19:24:33 49° ENE 19:24:58 47° E
Cosmos 1602 Rocket 3.7 19:21:29 10° N 19:25:43 49° ENE 19:26:09 47° E
ISS -2.4 19:22:50 10° W 19:25:55 34° NNW 19:26:56 27° NNE
Cosmos 1850 Rocket 4.0 19:22:45 10° NNW 19:27:53 58° ENE 19:29:23 41° ESE
USA 234 4.4 19:22:09 10° NE 19:28:06 39° NNW 19:34:03 10° W
SL-4 R/B 3.9 19:26:01 10° SSW 19:26:54 15° S 19:26:54 15° S
Resurs 1-3 3.8 19:29:47 47° E 19:30:07 49° ENE 19:34:22 10° N
ERBS 3.1 19:28:05 10° WNW 19:31:19 42° SW 19:31:44 40° SSW
Cosmos 2297 Rocket 3.1 19:27:02 10° SW 19:32:31 49° WNW 19:38:01 10° NNE
SL-14 R/B 4.3 19:29:58 10° N 19:32:34 31° NE 19:32:34 31° NE
Cosmos 2181 Rocket 4.4 19:27:42 10° SSW 19:33:56 67° W 19:40:20 10° N
SL-08 R/B 4.5 19:29:21 10° N 19:35:51 76° E 19:39:57 24° SSE
Cosmos 1766 3.5 19:33:00 10° SSW 19:36:55 69° W 19:40:49 10° N
Nadezhda 3 Rocket 4.2 19:36:25 40° ESE 19:37:35 44° E 19:43:26 10° NNE
SJ-6B 3.2 19:35:50 29° S 19:37:48 66° WSW 19:41:51 10° NNW
Cosmos 1420 Rocket 4.3 19:38:24 10° SSW 19:43:41 69° WNW 19:49:02 10° NNE
Cosmos 2366 rocket 4.2 19:37:41 10° NNW 19:44:02 71° W 19:50:19 10° S
BREEZE-M DEB (TANK) 3.8 19:35:24 10° WNW 19:45:47 54° SW 19:46:43 44° S
Cosmos 2218 Rocket 4.4 19:41:31 10° NNW 19:47:47 63° W 19:53:57 10° S
Cosmos 1674 3.5 19:44:26 10° NNW 19:48:01 47° W 19:49:05 36° SW
Resurs 01 Rocket 1.8 19:50:09 56° NE 19:50:09 56° NE 19:54:07 10° N
Cosmos 1821 Rocket 4.0 19:44:54 10° N 19:50:54 53° ENE 19:51:36 51° ESE
Cosmos 1943 3.8 19:47:50 10° NNW 19:53:09 38° NE 19:53:14 38° ENE
DELTA 2 R/B (1) 4.0 19:50:35 10° WSW 19:55:55 45° S 19:56:13 45° S
Lacrosse 5 1.9 19:53:31 10° SW 19:57:58 63° S 19:57:58 63° S
Spot 2 Rocket 4.1 20:00:29 42° NE 20:00:29 42° NE 20:04:29 10° N
Cosmos 1741 Rocket 4.0 19:55:22 10° NNW 20:00:43 79° WSW 20:01:42 60° S
Lacrosse 5 rocket 3.2 19:58:55 10° WNW 20:01:57 23° NNW 20:03:06 20° N
Meteor 2-12 Rocket 4.3 20:01:04 10° N 20:07:12 70° E 20:07:42 66° ESE
SL-24 R/B 4.5 20:16:11 74° W 20:16:11 74° W 20:21:20 10° NNW
ATLAS CENTAUR R/B 3.3 20:15:57 10° SW 20:18:08 26° SW 20:18:08 26° SW
Cosmos 1626 4.3 20:19:17 10° NNW 20:20:48 23° NNW 20:20:48 23° NNW
BREEZE-M DEB (TANK) 4.2 20:20:49 10° WNW 20:25:51 81° NNE 20:28:55 49° ESE
CZ-4C R/B 4.1 20:22:02 10° NNW 20:27:40 26° NNE 20:29:11 25° NE
CZ-2C R/B 4.2 20:22:18 10° NNE 20:24:41 25° NNE 20:24:41 25° NNE
MetOp-B 4.5 20:30:36 57° N 20:30:36 57° N 20:34:53 10° NNW
Meteor 1-21 Rocket 4.3 20:24:18 10° N 20:29:46 76° N 20:29:46 76° N
Cosmos 1603 3.8 20:29:37 10° NNW 20:34:44 71° NW 20:34:44 71° NW
SL-16 R/B 4.1 20:34:35 10° NW 20:38:58 23° WSW 20:41:24 18° SW
Cosmos 1934 Rocket 4.1 20:38:20 10° N 20:43:36 67° N 20:43:36 67° N
ADEOS Rocket 4.3 20:39:48 10° N 20:46:57 50° WNW 20:54:21 10° SW
CZ-2C R/B 4.0 20:46:53 43° WSW 20:47:11 43° W 20:52:32 10° NNW
H-2A R/B 4.2 20:59:22 16° WSW 21:00:54 19° W 21:04:25 10° NW
Terra 4.2 21:09:05 16° N 21:09:05 16° N 21:10:10 10° N
Cosmos 2263 Rocket 4.4 21:26:33 17° NNE 21:26:33 17° NNE 21:27:51 10° NNE
Resurs 01 Rocket 4.5 21:27:44 14° WNW 21:27:44 14° WNW 21:29:07 10° NW
CZ-4C R/B 3.9 22:10:12 10° NW 22:14:20 39° NNW 22:14:20 39° NNW
